Showing default

IHOPSAT-TD, 44859

Orbit data source: Space-Track

IHOPSAT-TD, 44859 is a payload satellite owned by Hera Systems (US) in LEO that was launched on Wed, 11 Dec 2019 UTC via a PSLV-QL launch vehicle from the Sirharikota (SRI). Payload-class satellites include a variety of spacecraft equipped with specific instruments for various scientific and technological missions. These include communications satellites like Starlink; space stations such as the ISS; scientific satellites like the Hubble; Earth observation satellites from companies like Planet Labs, Umbra, and HawkEye 360; GPS; miniature CubeSats for education and research; and military/defense satellites.

Loading next visibility...
Identifier
44859, 2019-089H
Orbit
LEO
Country
Flag of USUS
Related business
Manufacturer
Hera Systems
Mission
Operational Commercial Imaging
Bus & Motor
CUBESAT 12U, Unknown motor
Mass
22 kg wet, 22 kg dry
Launch date (UTC)
2019-12-11 (6 years ago)
Launch vehicle
PSLV-QL
Launch site
Sirharikota (SRI)
Object type
Payload
Rocket body
Debris
Shape & HBR
Box, Unknown HBR
Radar Cross Section
0.080 m², Small (<0.1 m²)

Expand to show TLE details & history
Last TLE update: 1 day ago

TLE from 1 day ago
0 IHOPSAT-TD
1 44859U 19089H   25294.99039750  .00005534  00000-0  33962-3 0  9994
2 44859  36.9690  32.3453 0004577  77.3510 282.7747 15.09898096321942
Epoch: 2025-10-21T23:46Z
TLE epoch observation values (Epoch: 2025-10-21T23:46:10.343Z)
Latitude
-0.00001°
Longitude
5.13175°
Altitude
534.933 km
Speed
7.598 km/s
True Right ascension
02h 09m 22s
True Declination
0° 00' 00"
Sunlit
Object was in full shadow at epoch
Visualization orbit readout
Latitude
Unknown
Longitude
Unknown
Altitude
Unknown
Speed
Unknown
Apparent Right ascension
Unknown
Apparent Declination
Unknown
Sunlit
N/A
Visualization observer readout
Local Sidereal Time
23:57:42
Azimuth
Unknown
Elevation
Unknown
Doppler factor
Unknown
Orbital elements
Apogee altitude
542.596 km
Perigee altitude
536.264 km
Semi-major axis
6,917.567 km
Eccentricity
0.00046
Inclination
36.969°
RAAN
32.3453°
Arg. of periapsis
77.351°
True anomaly
282.72354°
Mean anomaly
282.7747°
Eccentric anomaly
282.74912°
Mean motion
3.77236 °/min
Orbital period
95.43 mins
BSTAR
0.00033962
Loading maneuver chart data...
Computing Atmospheric mass density...
Loading historical data...
Loading historical data...
Loading historical data...
Loading historical data...
Loading historical data...
Loading historical data...
Loading historical data...

Documentation

Showing up to 5 results
|